sat.trackr.live / text

‹ back to catalog

STARLINK-32958

NORAD 63563 · 2025-075R

PAYLOAD ACTIVE UNKNOWN

§ Identity

Operator
Country
US
Launch date
2025-04-13
Launch site
AFETR
Launch vehicle
Mass (kg)
RCS (m²)

Purposes: comms

External: N2YO · Heavens-Above · Gunter

§ Orbital elements

Epoch: 2026-09-20T23:21:58.864608Z

Period
94.27 min
Inclination
42.9991°
Eccentricity
0.0001345
Mean motion
15.27581597 rev/d
Perigee alt
482.1 km
Apogee alt
484.0 km
Semi-major
6,861.2 km
B*
3.4709e-4
RAAN
247.7646°
Arg perigee
268.9110°
Mean anomaly
91.1587°
Rev number
8,179

§ Raw data

STARLINK-329581 63563U 25075R   26263.97359797  .00009302  00000+0  34709-3 0  99962 63563  42.9991 247.7646 0001345 268.9110  91.1587 15.27581597 81791

JSON: /api/v1/satellites/63563 · /tle

For live sub-satellite position, see the globe view (requires WebGL).

§ Visibility from observer

Set your observer location to see the next 7 days of passes ≥ 10°. The values pass through the URL so the page stays shareable.

No JS? Fill the form by hand. The geolocation button needs JavaScript.